Cordova, SC

12:07 PM EST on February 12, 2016 (GMT -0500)
Orangeburg Municipal

Weather History for KOGB - March, 2013

Change the Weather History Date:

Thursday, March 7, 2013

  Actual Average Record
Temperature  
Mean Temperature 46 °F 54 °F  
Max Temperature 61 °F 66 °F 82 °F (1961)
Min Temperature 31 °F 42 °F 19 °F (1960)
Degree Days  
Heating Degree Days 19 11  
Month to date heating degree days 142 82  
Since 1 July heating degree days 1775 2014  
Cooling Degree Days 0 0  
Month to date cooling degree days 0 0  
Year to date cooling degree days 20 3  
Moisture  
Dew Point 28 °F    
Average Humidity 54    
Maximum Humidity 79    
Minimum Humidity 27    
Precipitation  
Precipitation 0.00 in 0.14 in 1.30 in (1977)
Month to date precipitation 0.06 0.91  
Year to date precipitation 8.22 8.48  
Sea Level Pressure  
Sea Level Pressure 30.19 in    
Wind  
Wind Speed 4 mph (NNW)    
Max Wind Speed 14 mph    
Max Gust Speed 20 mph    
Visibility 10 miles    
Events      
T = Trace of Precipitation, MM = Missing Value Source: NWS Daily Summary

Daily Weather History Graph

Daily Weather History Graph

Search for Another Location

Airport or City:

Trip Planner

Search our weather history database for the weather conditions in past years. The results will help you decide how hot, cold, wet, or windy it might be!

Date:

Astronomy

Mar. 07, 2013 Rise Set
Actual Time 6:43 AM EST 6:25 PM EST
Civil Twilight 6:19 AM EST 6:50 PM EST
Nautical Twilight 5:50 AM EST 7:18 PM EST
Astronomical Twilight 5:21 AM EST 7:47 PM EST
Moon 3:31 AM EST (3/7) 2:21 PM EST (3/7)
Length of Visible Light 12h 30m
Length of Day
11h 41m
Waning Crescent, 20% of the Moon is Illuminated
Mar 7
Waning Crescent
Mar 11
New
Mar 19
First Quarter
Mar 27
Full
Apr 3
Last Quarter

Hourly Weather History & Observations

Time (EST) Temp. Windchill Dew Point Humidity Pressure Visibility Wind Dir Wind Speed Gust Speed Precip Events Conditions
12:53 AM 37.9 °F 34.4 °F 27.0 °F 65% 30.14 in 10.0 mi NNW 4.6 mph - N/A   Clear
1:53 AM 37.0 °F 34.5 °F 27.0 °F 67% 30.15 in 10.0 mi NW 3.5 mph - N/A   Clear
2:53 AM 35.1 °F 31.0 °F 27.0 °F 72% 30.16 in 10.0 mi NW 4.6 mph - N/A   Clear
3:53 AM 34.0 °F - 26.1 °F 73% 30.16 in 10.0 mi Calm Calm - N/A   Clear
4:53 AM 33.1 °F 30.0 °F 26.1 °F 75% 30.17 in 10.0 mi NW 3.5 mph - N/A   Clear
5:53 AM 32.0 °F 28.7 °F 26.1 °F 79% 30.20 in 10.0 mi NW 3.5 mph - N/A   Clear
6:53 AM 32.0 °F 28.7 °F 26.1 °F 79% 30.22 in 10.0 mi NNW 3.5 mph - N/A   Clear
7:53 AM 37.0 °F 31.6 °F 27.0 °F 67% 30.24 in 10.0 mi North 6.9 mph - N/A   Clear
8:53 AM 43.0 °F 37.7 °F 27.0 °F 53% 30.25 in 10.0 mi NNE 9.2 mph - N/A   Clear
9:53 AM 46.9 °F - 27.0 °F 46% 30.24 in 10.0 mi NNE 10.4 mph - N/A   Clear
10:53 AM 50.0 °F - 27.0 °F 41% 30.23 in 10.0 mi North 5.8 mph - N/A   Clear
11:53 AM 51.1 °F - 27.0 °F 39% 30.21 in 10.0 mi Calm Calm - N/A   Clear
12:53 PM 54.0 °F - 27.0 °F 35% 30.19 in 10.0 mi Calm Calm - N/A   Clear
1:53 PM 57.0 °F - 27.0 °F 32% 30.15 in 10.0 mi Variable 5.8 mph - N/A   Clear
2:53 PM 57.9 °F - 28.0 °F 32% 30.14 in 10.0 mi WNW 10.4 mph - N/A   Clear
3:53 PM 59.0 °F - 28.0 °F 31% 30.13 in 10.0 mi West 9.2 mph - N/A   Clear
4:53 PM 60.1 °F - 27.0 °F 28% 30.13 in 10.0 mi NW 8.1 mph - N/A   Clear
5:53 PM 59.0 °F - 27.0 °F 29% 30.14 in 10.0 mi WNW 6.9 mph - N/A   Clear
6:53 PM 55.9 °F - 30.0 °F 37% 30.17 in 10.0 mi Calm Calm - N/A   Clear
7:53 PM 48.9 °F - 30.9 °F 50% 30.19 in 10.0 mi Calm Calm - N/A   Clear
8:53 PM 44.1 °F - 33.1 °F 65% 30.19 in 10.0 mi Calm Calm - N/A   Clear
9:53 PM 43.0 °F - 33.1 °F 68% 30.21 in 10.0 mi Calm Calm - N/A   Clear
10:53 PM 39.9 °F - 34.0 °F 79% 30.22 in 10.0 mi Calm Calm - N/A   Clear
11:53 PM 43.0 °F 38.2 °F 32.0 °F 65% 30.22 in 10.0 mi NE 8.1 mph - N/A   Clear